Lexington Weather

Lexington, Massachusetts, USA

25°F
2/26/2021 6:56am 
  • Lexington Conditions: Clear
  • Temperature: 24.6°F / -4.1°CColder 1.5°F than last hour.
  • Dew Point: 14.9°FDecreased 0.7°Fsince last hour.
  • Relative Humidity: 66%Increased 2.0% since last hour.
  • Wind: Calm, 10-min avg: Calm, gust: None
  • Barometer: 30.32 inRising 0.03  inHg/hr Rising Slowly
  • Visibility: 10 miles
  • Snow Today: 0.0 in
  •   

Regional Weather Roundup
for Boston / Norton, MA

        
000
ASUS41 KBOX 240404
RWRBOX

REGIONAL WEATHER ROUNDUP
NATIONAL WEATHER SERVICE BOSTON/NORTON MA
1100 PM EST TUE FEB 23 2021

NOTE:  "FAIR" INDICATES FEW OR NO CLOUDS BELOW 12,000 FEET WITH NO 
SIGNIFICANT WEATHER AND/OR OBSTRUCTIONS TO VISIBILITY.

MAZALL-240500-
EASTERN MASSACHUSETTS
  
CITY           SKY/WX    TMP DP  RH WIND       PRES   REMARKS
BOSTON         PTCLDY    38  30  73 W15G23    29.67R WCI  29          
BEVERLY        PTCLDY    37  30  75 W7        29.66R WCI  32          
LAWRENCE       CLEAR     36  30  79 W7        29.68R WCI  30          
BEDFORD        PTCLDY    37  30  75 W9        29.67R WCI  30          
BLUE HILL        N/A     34  32  92 W16G26    29.64R WCI  24          
NORWOOD        MOCLDY    38  30  73 W8        29.69R                  
MARSHFIELD     CLEAR     37  34  87 W8        29.67R WCI  31          
PLYMOUTH       CLEAR     35  31  85 W12       29.67R WCI  27          
TAUNTON        CLEAR     38  31  76 W9        29.69R WCI  31          
NEW BEDFORD    CLEAR     39  31  72 W13       29.70R WCI  31          
$$

MAZALL-240500-
CAPE COD AND THE ISLANDS
  
CITY           SKY/WX    TMP DP  RH WIND       PRES   REMARKS
FALMOUTH       MOCLDY    36  32  87 W15       29.68R WCI  26          
HYANNIS        CLEAR     37  32  82 W10       29.66R WCI  30          
CHATHAM        CLEAR     37  31  78 W7G17     29.67R WCI  32          
PROVINCETOWN   CLEAR     37  34  89 W14       29.67R WCI  28          
NANTUCKET      CLEAR     37  34  89 W17G24    29.69R WCI  27          
MARTHAS VNYRD  CLEAR     38  33  82 W14G23    29.70R WCI  30          
$$
 
MAZALL-240500-
CENTRAL AND WESTERN MASSACHUSETTS
  
CITY           SKY/WX    TMP DP  RH WIND       PRES   REMARKS
WORCESTER      CLOUDY    37  27  67 W13G23    29.67R WCI  29          
FITCHBURG      CLOUDY    38  31  76 W12G18    29.68R WCI  30          
ORANGE         CLOUDY    38  30  73 W6        29.71R                  
SPRINGFIELD    CLOUDY    39  30  69 NW13      29.73R WCI  32          
WESTFIELD      CLOUDY    41  31  67 NW18G30   29.73R                  
NORTH ADAMS    CLOUDY    38  31  76 W18G28    29.75R WCI  28          
PITTSFIELD     CLOUDY    36  30  79 W16       29.74R WCI  26          
$$
 
RIZALL-240500-
RHODE ISLAND
  
CITY           SKY/WX    TMP DP  RH WIND       PRES   REMARKS
PROVIDENCE     MOCLDY    38  32  79 W5        29.72R                  
NEWPORT        CLOUDY    38  32  79 W10G17    29.72R WCI  31          
BLOCK ISLAND   CLOUDY    39  33  79 W20G25    29.75R WCI  29          
SMITHFIELD     CLOUDY    38  32  79 W12G23    29.70R WCI  30          
WESTERLY       CLOUDY    38  32  79 VRB7      29.75R                  
$$
 
CTZALL-240500-
CONNECTICUT
  
CITY           SKY/WX    TMP DP  RH WIND       PRES   REMARKS
BRADLEY INTL   CLOUDY    40  30  67 NW12      29.75R                  
HARTFORD       CLOUDY    42  30  62 SW3       29.78R                  
BRIDGEPORT     CLEAR     42  31  64 W13G22    29.79R                  
DANBURY        CLEAR     42  29  59 W12       29.80R                  
GROTON         CLOUDY    40  33  76 W6        29.75R                  
NEW HAVEN      PTCLDY    42  32  67 CALM      29.78R                  
CHESTER        CLOUDY    39  32  75 W7G13     29.75R                  
MERIDEN        CLOUDY    40  30  67 NW5       29.77R                  
WILLIMANTIC    CLOUDY    40  31  70 W9G18     29.75R                  
OXFORD         PTCLDY    38  33  82 W8        29.76R                  
$$

MEZ002-015-021-024-NHZ003-005-008-011-012-014-VTZ005-008-240500-
NORTHERN NEW ENGLAND
  
CITY           SKY/WX    TMP DP  RH WIND       PRES   REMARKS
PORTLAND ME    MOCLDY    33  30  88 W8        29.62R WCI  26          
BANGOR ME      CLOUDY    32  31  96 W3        29.57R                  
CONCORD NH     CLOUDY    33  28  81 W8        29.65R WCI  26          
MANCHESTER NH  PTCLDY    36  29  75 CALM      29.65R                  
NASHUA NH      PTCLDY    33  33 100 W8        29.67R WCI  26          
PORTSMOUTH NH  MOCLDY    34  30  84 CALM      29.64R                  
JAFFREY NH     CLOUDY    36  28  73 VRB3      29.66R                  
KEENE NH       CLOUDY    32  32 100 S5        29.70R WCI  27          
BURLINGTON VT  CLOUDY    35  31  85 SW5       29.68R WCI  31          
MT. WASHINGTON SNOW      14  14 100 W63G72      N/A  VSB 0   WCI -13  
$$

NYZ052-076-240500-
EASTERN NEW YORK
  
CITY           SKY/WX    TMP DP  RH WIND       PRES   REMARKS
ALBANY         CLOUDY    37  31  78 W21       29.78R WCI  26          
NEW YORK CITY  PTCLDY    44  29  55 NW14G23   29.83R                  
$$
 
ANZALL-240500-
MARINE OBSERVATIONS
  
STATION/POSITION TIME  TEMP    WIND        PRES    VSBY  WAVE
                       AIR SEA DIR/SP/G                  HT/PER
                 (UTC) (F)     (DEG/KT/KT) (MB)    (MI)  (FT/S)
BOSTON BUOY      0340   38 39  260/ 16/ 19 1004.8R
BUZZARDS BAY     0300          270/ 22/ 25 1006.1R
NANTUCKET SOUND  0340      36  270/ 16/ 19   N/A
MASS BAY-STELLWA 0304   39     270/ 14/ 17 1001.9R  1 7/8
ISLE OF SHOALS   0300   37     270/ 17/ 19 1002.4R
S OF BLOCK IS    0326      38                N/A           7/11
$$

......................KEY.........................
  SKY/WX - SKY CONDITION/PRESENT WEATHER
  TMP    - TEMPERATURE IN FAHRENHEIT
  DWPT   - DEWPOINT IN FAHRENHEIT
  RH     - RELATIVE HUMIDITY IN PERCENT
  WIND   - DIRECTION AND SPEED IN MPH
  PRES   - MEAN SEA LEVEL PRESSURE IN INCHES OF HG
  WCI    - WIND CHILL INDEX
  VSB    - VISIBILITY IN MILES
  HX     - HEAT INDEX
  TC     - TEMPERATURE IN CELSIUS
  VRB    - VARIABLE WIND DIRECTION
  N/A    - NOT AVAILABLE
  
      

Other recent Regional Weather Roundups

Fri Feb 26, 6:04am

Fri Feb 26, 5:04am

Fri Feb 26, 4:04am

Fri Feb 26, 3:04am

Fri Feb 26, 2:04am

Fri Feb 26, 1:04am

Fri Feb 26, 12:04am

Thu Feb 25, 11:04pm

Thu Feb 25, 10:04pm

Thu Feb 25, 9:04pm

Thu Feb 25, 8:05pm

Thu Feb 25, 7:05pm

Thu Feb 25, 6:04pm

Thu Feb 25, 5:04pm

Thu Feb 25, 4:05pm

Thu Feb 25, 3:05pm

Thu Feb 25, 2:04pm

Thu Feb 25, 1:04pm

Thu Feb 25, 12:05pm

Thu Feb 25, 11:04am

Thu Feb 25, 10:04am

Thu Feb 25, 9:04am

Thu Feb 25, 8:04am

Thu Feb 25, 7:04am

Thu Feb 25, 6:04am

Thu Feb 25, 5:04am

Thu Feb 25, 4:04am

Thu Feb 25, 3:04am

Thu Feb 25, 2:04am

Thu Feb 25, 1:04am

Thu Feb 25, 12:04am

Wed Feb 24, 11:04pm

Wed Feb 24, 10:05pm

Wed Feb 24, 9:04pm

Wed Feb 24, 8:04pm

Wed Feb 24, 7:04pm

Wed Feb 24, 6:04pm

Wed Feb 24, 5:04pm

Wed Feb 24, 4:04pm

Wed Feb 24, 3:04pm

Wed Feb 24, 2:05pm

Wed Feb 24, 1:05pm

Wed Feb 24, 12:05pm

Wed Feb 24, 11:04am

Wed Feb 24, 10:04am

Wed Feb 24, 9:04am

Wed Feb 24, 8:04am

Wed Feb 24, 7:04am

Wed Feb 24, 6:04am

Wed Feb 24, 5:04am

Wed Feb 24, 4:04am

Wed Feb 24, 3:04am

Wed Feb 24, 2:04am

Wed Feb 24, 1:04am

Wed Feb 24, 12:04am

Tue Feb 23, 10:04pm

Tue Feb 23, 9:04pm

Tue Feb 23, 8:05pm

Tue Feb 23, 7:04pm

Tue Feb 23, 6:04pm

Tue Feb 23, 5:04pm

Tue Feb 23, 4:05pm

Tue Feb 23, 3:04pm

Tue Feb 23, 2:04pm

Tue Feb 23, 1:04pm

Tue Feb 23, 12:04pm

Tue Feb 23, 11:04am

Tue Feb 23, 10:04am

Tue Feb 23, 9:04am

Tue Feb 23, 7:04am

Tue Feb 23, 6:04am

Tue Feb 23, 5:04am

Tue Feb 23, 4:04am

Tue Feb 23, 3:04am

Tue Feb 23, 2:04am

Tue Feb 23, 1:04am

Tue Feb 23, 12:04am

Mon Feb 22, 11:04pm

Mon Feb 22, 10:04pm

Mon Feb 22, 9:04pm

Mon Feb 22, 8:04pm

Mon Feb 22, 7:04pm

Mon Feb 22, 6:04pm

Mon Feb 22, 5:04pm

Mon Feb 22, 4:05pm

Mon Feb 22, 3:04pm

Mon Feb 22, 2:05pm

Mon Feb 22, 1:04pm

Mon Feb 22, 12:05pm

Mon Feb 22, 11:04am

Mon Feb 22, 10:04am

Mon Feb 22, 9:05am

Mon Feb 22, 8:04am

Mon Feb 22, 7:04am

Mon Feb 22, 6:04am

Mon Feb 22, 5:04am

Mon Feb 22, 4:04am

Mon Feb 22, 3:04am

Mon Feb 22, 2:04am

Mon Feb 22, 1:04am

Mon Feb 22, 12:04am

Sun Feb 21, 11:04pm

Sun Feb 21, 10:05pm

Sun Feb 21, 9:04pm

Sun Feb 21, 8:04pm

Sun Feb 21, 7:04pm

Sun Feb 21, 6:04pm

Sun Feb 21, 5:04pm

Sun Feb 21, 4:05pm

Sun Feb 21, 3:04pm

Sun Feb 21, 2:04pm

Sun Feb 21, 1:05pm

Sun Feb 21, 12:05pm

Sun Feb 21, 11:04am

Sun Feb 21, 10:05am

Sun Feb 21, 9:04am

Sun Feb 21, 8:04am

Sun Feb 21, 7:04am

Sun Feb 21, 6:04am

Sun Feb 21, 5:04am

Sun Feb 21, 4:04am

Sun Feb 21, 3:04am

Sun Feb 21, 2:04am

Sun Feb 21, 1:04am

Sun Feb 21, 12:04am

Sat Feb 20, 11:04pm

Sat Feb 20, 10:04pm

Sat Feb 20, 9:04pm

Sat Feb 20, 8:04pm

Sat Feb 20, 7:04pm

Sat Feb 20, 6:04pm

Sat Feb 20, 5:04pm

Sat Feb 20, 4:05pm

Sat Feb 20, 3:04pm

Sat Feb 20, 2:04pm

Sat Feb 20, 1:05pm

Sat Feb 20, 12:05pm

Sat Feb 20, 11:04am

Sat Feb 20, 10:05am

Sat Feb 20, 9:04am

Sat Feb 20, 8:04am

Sat Feb 20, 7:04am

Sat Feb 20, 6:04am

Sat Feb 20, 5:04am

Sat Feb 20, 4:04am

Sat Feb 20, 3:04am

Sat Feb 20, 2:04am

Sat Feb 20, 1:04am

Sat Feb 20, 12:04am

Fri Feb 19, 11:04pm

Fri Feb 19, 10:05pm

Fri Feb 19, 9:04pm

Fri Feb 19, 8:04pm

Fri Feb 19, 7:04pm

Fri Feb 19, 6:04pm

Fri Feb 19, 5:04pm

Fri Feb 19, 4:05pm

Fri Feb 19, 3:04pm

Fri Feb 19, 2:04pm

Fri Feb 19, 1:05pm

Fri Feb 19, 12:05pm

Fri Feb 19, 11:04am

Fri Feb 19, 10:04am

Fri Feb 19, 9:04am

Fri Feb 19, 8:04am

Fri Feb 19, 7:04am

Meta data:

ID: c4f76e9c-41da-4d9e-87e7-1d99055180e9
Link: https://api.weather.gov/products/c4f76e9c-41da-4d9e-87e7-1d99055180e9